KB1ATL Wesley Chapel FL US current weather conditions

sailwx.info

Wind from 331

Air temperature 25.0° C
Dewpoint 24.5° C

Last reported at 2019-Jul-17 04:03 UTC.
Time now 2019-Jul-17 04:26 UTC

Location: N 28°12' W 082°22'.
View on Google Maps.

See reports from other nearby stations

  
Tides and Currents Weather Stations Pressure Air Temp Water Temp Dewpoint Dewpoint Depression Visibility Wind Speed Wind Dir Waves Ship Positions
date/time (UTC)wind fromknots sea level pressurealtimeterstation pressurevisibilityair tempwater tempwave heightnotes
2019-Jul-17 04:03 331 25.0
2019-Jul-17 03:53 331 25.0
2019-Jul-17 03:43 331 25.0
2019-Jul-17 03:33 331 25.0
2019-Jul-17 03:23 331 24.4
2019-Jul-17 03:13 331 24.4
2019-Jul-17 03:03 331 24.4
2019-Jul-17 02:53 331 24.4
2019-Jul-17 02:43 331 24.4
2019-Jul-17 02:33 331 24.4
2019-Jul-17 02:23 331 24.4
2019-Jul-17 02:13 331 24.4
2019-Jul-17 02:03 331 24.4
2019-Jul-17 01:53 331 24.4
2019-Jul-17 01:43 130 24.4
2019-Jul-17 01:33 130 24.4
2019-Jul-17 01:23 130 24.4
2019-Jul-17 01:13 130 23.9
2019-Jul-17 01:03 130 23.9
2019-Jul-17 00:53 126 0 23.3
2019-Jul-17 00:43 155 23.9
2019-Jul-17 00:33 152 23.9
2019-Jul-17 00:23 150 3 24.4
2019-Jul-17 00:13 074 3 26.7
2019-Jul-17 00:03 117 1 27.2
2019-Jul-16 23:53 188 1 27.8
2019-Jul-16 23:43 260 0 28.3
2019-Jul-16 23:33 270 30.0
2019-Jul-16 23:23 300 30.0
2019-Jul-16 23:13 300 0 30.0
2019-Jul-16 23:03 311 0 30.0
2019-Jul-16 22:53 336 0 30.6
2019-Jul-16 22:43 286 0 32.2
2019-Jul-16 22:33 299 34.4
2019-Jul-16 22:23 098 35.6
2019-Jul-16 22:13 091 0 36.1
2019-Jul-16 22:03 067 0 36.1
2019-Jul-16 21:53 070 36.1
2019-Jul-16 21:43 070 0 35.6
2019-Jul-16 21:33 071 0 35.0
2019-Jul-16 21:23 032 33.3
2019-Jul-16 21:13 032 34.4
2019-Jul-16 21:03 032 0 35.0
2019-Jul-16 20:53 071 34.4
2019-Jul-16 20:43 069 32.8
2019-Jul-16 20:33 069 32.8
2019-Jul-16 20:23 069 33.9
2019-Jul-16 20:13 069 0 35.0
2019-Jul-16 20:03 078 0 35.6
2019-Jul-16 19:53 136 0 36.1
2019-Jul-16 19:43 106 35.6
2019-Jul-16 19:33 106 0 35.6
2019-Jul-16 19:23 063 0 36.7
2019-Jul-16 19:13 081 0 36.1
2019-Jul-16 19:03 017 0 36.1
2019-Jul-16 18:53 059 0 35.6
2019-Jul-16 18:43 079 0 35.6
2019-Jul-16 18:33 076 0 35.6
2019-Jul-16 18:23 107 0 35.6
2019-Jul-16 18:13 095 0 35.0
2019-Jul-16 18:03 024 35.6
2019-Jul-16 17:53 073 1 35.6
2019-Jul-16 17:43 075 0 35.0
2019-Jul-16 17:33 107 34.4
2019-Jul-16 17:23 024 34.4
2019-Jul-16 17:13 024 0 35.0
2019-Jul-16 17:03 105 0 35.0
2019-Jul-16 16:53 103 35.0
2019-Jul-16 16:43 104 0 34.4
2019-Jul-16 16:33 084 0 34.4
2019-Jul-16 16:23 097 33.3
2019-Jul-16 16:13 101 32.8
2019-Jul-16 16:03 102 32.8
2019-Jul-16 15:53 102 33.3
2019-Jul-16 15:43 101 0 33.9
2019-Jul-16 15:33 101 33.9
2019-Jul-16 15:23 088 32.8
2019-Jul-16 15:13 117 0 32.8
2019-Jul-16 15:03 131 32.8
2019-Jul-16 14:53 131 32.2
2019-Jul-16 14:43 131 32.2
2019-Jul-16 14:33 131 31.7
2019-Jul-16 14:23 131 31.1
2019-Jul-16 14:13 169 0 30.6
2019-Jul-16 14:03 198 0 30.6
2019-Jul-16 13:53 117 0 30.0
2019-Jul-16 13:43 219 30.0
2019-Jul-16 13:33 114 0 29.4
2019-Jul-16 13:23 126 29.4
2019-Jul-16 13:13 125 28.9
2019-Jul-16 13:03 109 28.9
2019-Jul-16 12:53 109 28.3
2019-Jul-16 12:43 109 27.8
2019-Jul-16 12:33 109 0 27.2
2019-Jul-16 12:23 109 27.2
2019-Jul-16 12:13 118 26.7
2019-Jul-16 12:03 288 26.1
2019-Jul-16 11:53 288 25.6
2019-Jul-16 11:43 288 25.6
2019-Jul-16 11:33 288 25.0
2019-Jul-16 11:23 288 25.0
2019-Jul-16 11:13 288 24.4
2019-Jul-16 11:03 288 24.4
2019-Jul-16 10:53 288 24.4
2019-Jul-16 10:43 288 24.4
2019-Jul-16 10:33 288 24.4
2019-Jul-16 10:23 288 25.0
2019-Jul-16 10:13 288 25.0
2019-Jul-16 10:03 288 25.0
2019-Jul-16 09:53 288 25.0
2019-Jul-16 09:43 288 25.0
2019-Jul-16 09:33 288 25.0
2019-Jul-16 09:23 288 25.0
2019-Jul-16 09:13 288 25.0
2019-Jul-16 09:03 288 25.0
2019-Jul-16 08:53 288 25.0
2019-Jul-16 08:43 288 25.0
2019-Jul-16 08:33 288 25.0
2019-Jul-16 08:23 288 25.0
2019-Jul-16 08:13 288 25.0
2019-Jul-16 08:03 288 25.0
2019-Jul-16 07:53 288 25.0
2019-Jul-16 07:43 288 25.0
2019-Jul-16 07:33 288 25.0
2019-Jul-16 07:23 288 25.0
2019-Jul-16 07:13 288 25.0
2019-Jul-16 07:03 288 25.0
2019-Jul-16 06:53 288 25.0
2019-Jul-16 06:43 288 25.6
2019-Jul-16 06:33 288 25.6
2019-Jul-16 06:23 288 25.6
2019-Jul-16 06:13 287 25.6
2019-Jul-16 06:03 288 25.6
2019-Jul-16 05:53 288 25.6
2019-Jul-16 05:43 288 25.6
2019-Jul-16 05:33 288 25.6
2019-Jul-16 05:23 288 25.6
2019-Jul-16 05:13 288 25.6
2019-Jul-16 05:03 288 25.6
2019-Jul-16 04:53 288 25.6
2019-Jul-16 04:43 288 25.6
2019-Jul-16 04:33 288 25.6
2019-Jul-16 04:23 288 25.6
2019-Jul-16 04:13 288 25.6
2019-Jul-16 04:03 288 25.6
2019-Jul-16 03:53 288 25.6
2019-Jul-16 03:43 288 25.6
2019-Jul-16 03:33 288 25.6
2019-Jul-16 03:23 288 25.6
2019-Jul-16 03:13 288 25.6
2019-Jul-16 03:03 288 25.6
2019-Jul-16 02:53 288 25.6
2019-Jul-16 02:43 288 25.6
2019-Jul-16 02:33 288 25.6
2019-Jul-16 02:23 288 25.6
2019-Jul-16 02:13 288 25.6
2019-Jul-16 02:03 288 25.6
2019-Jul-16 01:53 288 25.6
2019-Jul-16 01:43 288 26.1
2019-Jul-16 01:33 288 26.1
2019-Jul-16 01:23 288 26.1
2019-Jul-16 01:13 288 26.1
2019-Jul-16 01:03 288 26.1
2019-Jul-16 00:53 288 26.1
2019-Jul-16 00:43 288 26.1
2019-Jul-16 00:33 288 26.1
2019-Jul-16 00:23 287 26.1
2019-Jul-16 00:13 287 26.1
2019-Jul-16 00:03 287 26.1
2019-Jul-15 23:53 287 26.1
2019-Jul-15 23:43 223 26.1
2019-Jul-15 23:33 223 26.1
2019-Jul-15 23:23 223 26.1
2019-Jul-15 23:13 223 26.7
2019-Jul-15 23:03 223 26.7
2019-Jul-15 22:53 217 27.2
2019-Jul-15 22:43 169 1 28.3
2019-Jul-15 22:33 160 3 30.6
2019-Jul-15 22:23 182 0 32.2
2019-Jul-15 22:13 289 0 32.2
2019-Jul-15 22:03 269 1 32.8
2019-Jul-15 21:53 284 0 32.8
2019-Jul-15 21:43 325 1 33.3
2019-Jul-15 21:33 286 1 32.8
2019-Jul-15 21:23 257 2 33.3
2019-Jul-15 21:13 269 1 33.3
2019-Jul-15 21:03 331 0 33.9
2019-Jul-15 20:53 252 34.4
2019-Jul-15 20:43 076 35.0
2019-Jul-15 20:33 080 34.4
2019-Jul-15 20:23 081 35.0
2019-Jul-15 20:13 081 36.1
2019-Jul-15 20:03 081 0 36.1
2019-Jul-15 19:53 100 36.1
2019-Jul-15 19:43 069 1 35.6
2019-Jul-15 19:33 094 34.4
2019-Jul-15 19:23 094 35.6
2019-Jul-15 19:13 313 0 35.0
2019-Jul-15 19:03 017 0 36.1
2019-Jul-15 18:53 022 0 36.7
2019-Jul-15 18:43 078 0 36.7
2019-Jul-15 18:33 067 1 35.6
2019-Jul-15 18:23 149 0 35.6
2019-Jul-15 18:13 073 1 35.6
2019-Jul-15 18:03 135 1 36.1
2019-Jul-15 17:53 063 0 35.6
2019-Jul-15 17:43 047 1 35.0
2019-Jul-15 17:33 121 0 35.6
2019-Jul-15 17:23 130 1 35.6
2019-Jul-15 17:13 111 0 35.6
2019-Jul-15 17:03 073 35.0
2019-Jul-15 16:53 067 0 33.9
2019-Jul-15 16:43 031 33.9
2019-Jul-15 16:33 036 0 34.4
2019-Jul-15 16:23 025 0 34.4
2019-Jul-15 16:13 079 33.9
2019-Jul-15 16:03 040 33.9
2019-Jul-15 15:53 069 0 33.9
2019-Jul-15 15:43 097 33.9
2019-Jul-15 15:33 096 33.3
2019-Jul-15 15:23 096 0 33.3
2019-Jul-15 15:13 140 0 32.8
2019-Jul-15 15:03 140 32.8
2019-Jul-15 14:53 145 0 32.2
2019-Jul-15 14:43 116 32.2
2019-Jul-15 14:33 113 31.7
2019-Jul-15 14:23 098 31.7
2019-Jul-15 14:13 148 31.1
2019-Jul-15 14:03 149 30.6
2019-Jul-15 13:53 149 30.6
2019-Jul-15 13:43 149 30.0
2019-Jul-15 13:33 143 30.0
2019-Jul-15 13:23 143 29.4
2019-Jul-15 13:13 144 29.4
2019-Jul-15 13:03 095 0 28.9
2019-Jul-15 12:53 116 1 28.3
2019-Jul-15 12:43 112 0 28.3
2019-Jul-15 12:33 080 27.8
2019-Jul-15 12:23 077 0 26.7
2019-Jul-15 12:13 074 26.1
2019-Jul-15 12:03 067 26.1
2019-Jul-15 11:53 067 25.0
2019-Jul-15 11:43 067 25.0
2019-Jul-15 11:33 067 24.4
2019-Jul-15 11:23 067 24.4
2019-Jul-15 11:13 067 23.9
2019-Jul-15 11:03 067 23.9
2019-Jul-15 10:53 067 23.9
2019-Jul-15 10:43 067 23.9
2019-Jul-15 10:33 067 23.9
2019-Jul-15 10:23 067 23.9
2019-Jul-15 10:13 067 23.9
2019-Jul-15 10:03 067 23.9
2019-Jul-15 09:53 067 23.9
2019-Jul-15 09:43 067 23.9
2019-Jul-15 09:33 067 23.9
2019-Jul-15 09:23 067 23.9
2019-Jul-15 09:13 067 23.9
2019-Jul-15 09:03 067 24.4
2019-Jul-15 08:53 067 24.4
2019-Jul-15 08:43 067 24.4
2019-Jul-15 08:33 067 24.4
2019-Jul-15 08:23 067 24.4
2019-Jul-15 08:13 067 24.4
2019-Jul-15 08:03 067 24.4
2019-Jul-15 07:53 067 24.4
2019-Jul-15 07:43 067 24.4
2019-Jul-15 07:33 067 24.4
2019-Jul-15 07:23 067 24.4
2019-Jul-15 07:13 067 24.4
2019-Jul-15 07:03 067 24.4
2019-Jul-15 06:53 067 24.4
2019-Jul-15 06:43 067 24.4
2019-Jul-15 06:33 067 25.0
2019-Jul-15 06:23 067 25.0
2019-Jul-15 06:13 067 25.0
2019-Jul-15 06:03 067 25.0
2019-Jul-15 05:53 067 25.6
2019-Jul-15 05:43 067 25.6
2019-Jul-15 05:33 067 25.6
2019-Jul-15 05:23 067 25.6
2019-Jul-15 05:13 067 25.6
2019-Jul-15 05:03 067 25.6
2019-Jul-15 04:53 067 26.1
2019-Jul-15 04:43 067 26.1
2019-Jul-15 04:33 067 26.1
2019-Jul-15 04:23 067 26.1
2019-Jul-15 04:13 067 26.1
2019-Jul-15 04:03 067 26.1